Regional Weather Roundup
Issued by NWS Green Bay, WI

Home | Current Version | Previous Version | Text Only | Print | Product List | Glossary On
Versions: 1 2 3 4 5 6 7 8 9 10 11 12 13 14 15 16 17 18 19 20 21 22 23 24 25 26 27 28 29 30 31 32 33 34 35 36 37 38 39 40 41 42 43 44 45 46 47 48 49 50
000
ASUS43 KGRB 230810
RWRGRB

NORTH-CENTRAL AND NORTHEAST WISCONSIN REGIONAL WEATHER ROUNDUP
NATIONAL WEATHER SERVICE GREEN BAY WI
300 AM CDT WED APR 23 2014

WIZ005-009-010>012-018-019-230900-
NORTH CENTRAL WISCONSIN

CITY           SKY/WX    TMP DP  RH WIND       PRES   REMARKS
IRONWOOD       CLEAR     27  21  80 CALM      30.10F
MANITOWISH WTR CLEAR     23  22  97 CALM      30.13R
ARBOR VITAE    CLEAR     24  15  68 CALM      30.13S
EAGLE RIVER    CLEAR     24  24 100 CALM      30.12S
LAND O LAKES   CLEAR     21  19  94 CALM      30.13S
RHINELANDER    CLEAR     23  20  88 CALM      30.13S
PHILLIPS       CLEAR     26  23  89 CALM      30.13R
ANTIGO         CLEAR     28  27  96 CALM      30.13R
TOMAHAWK       CLEAR     23  21  93 CALM      30.14S
MERRILL        CLEAR     25  24  95 CALM      30.14R
$$

WIZ013-073-230900-
NORTHEAST WISCONSIN

CITY           SKY/WX    TMP DP  RH WIND       PRES   REMARKS
IRON MOUNTAIN  CLEAR     22  18  85 CALM      30.13S
MARINETTE      CLEAR     30  25  80 NW6       30.13R
OCONTO         CLEAR     32  26  78 CALM      30.14R
$$

WIZ017-030-035>037-045-230900-
CENTRAL WISCONSIN

CITY           SKY/WX    TMP DP  RH WIND       PRES   REMARKS
MEDFORD        CLEAR     28  26  93 E5        30.12S
WAUSAU         CLEAR     30  26  85 CALM      30.13R
MOSINEE        CLEAR     32  28  86 N5        30.14S
MARSHFIELD     CLEAR     34  26  72 CALM      30.13R
WISC RAPIDS    CLEAR     29  25  85 CALM      30.15R
STEVENS POINT  CLEAR     24  22  89 CALM      30.15R
WAUPACA        CLEAR     34  27  75 CALM      30.15R
SHAWANO        CLEAR     29  27  92 CALM      30.14S
CLINTONVILLE   CLEAR     32  28  86 CALM      30.14R
$$

WIZ038-039-048-051-230900-
FOX VALLEY

CITY           SKY/WX    TMP DP  RH WIND       PRES   REMARKS
NWS GREEN BAY  CLEAR     30  27  88 N7        30.14S
APPLETON       CLEAR     32  27  80 N6        30.14R
OSHKOSH        CLEAR     35  26  69 CALM      30.13R
FOND DU LAC    CLEAR     33  27  78 CALM      30.13S
$$

WIZ022-050-052-230900-
EAST CENTRAL WISCONSIN

CITY           SKY/WX    TMP DP  RH WIND       PRES   REMARKS
STURGEON BAY   CLEAR     30  23  74 N5        30.13R
MANITOWOC      CLEAR     33  27  78 N5        30.14R
SHEBOYGAN      CLEAR     29  26  89 CALM      30.13R
$$

LMZ563-521-522-541>543-230900-
LAKESHORE

STATION/POSITION TIME  TEMP    WIND        PRES    VSBY  WAVE
                       AIR SEA DIR/SP/G                  HT/PER
                 (UTC) (F)     (DEG/KT/KT) (MB)    (MI)  (FT/S)
SHEBOYGAN LKSHOR 0800   36     280/  6/  7 1021.0R
KEWAUNEE LKSHORE 0800   33     330/  4/  7 1020.8R
NORTHPORT PIER   0800   31     300/  8/ 10 1020.0S
SISTER BAY LKSHO 0700   32      20/  9/ 12   N/A
MENOMINEE LKSHOR 0800   31     310/  7/  8 1020.7F
$$



USA.gov is the U.S. government's official web portal to all federal, state and local government web resources and services.